Theta_e
353 353 350 346 344 346 348 342 343 342 339 343 341 341 341 339 335 342 339 338 340 340 341 337 338 341 343 344 346 347 349 349 349
353 352 350 348 346 346 345 347 346 346 343 344 343 343 344 340 339 334 332 331 332 332 332 330 329 331 333 335 338 341 343 347 349
350 348 348 348 349 349 344 343 344 342 344 343 340 338 336 334 331 329 327 326 326 325 324 324 323 323 324 324 326 334 336 338 339
352 350 348 347 347 345 342 341 343 342 340 337 334 332 330 328 327 325 325 326 325 324 324 324 323 322 323 323 326 327 327 329 330
353 352 351 347 342 341 341 341 342 341 337 333 330 329 327 326 325 325 325 324 323 323 323 323 323 323 323 323 324 324 324 325 325
352 346 349 347 345 342 341 339 340 337 333 331 329 327 325 324 324 324 323 323 323 322 322 322 321 322 322 322 323 324 324 324 325
350 347 347 345 343 341 340 338 335 332 330 328 326 325 324 323 323 322 322 322 322 321 320 319 319 320 321 321 322 321 321 321 323
352 349 347 347 343 340 337 334 332 329 327 326 324 323 323 323 323 322 321 320 320 319 318 317 317 318 319 318 319 317 317 318 320
353 351 347 344 342 339 336 333 330 327 325 323 323 323 322 322 322 321 319 318 317 316 315 315 315 315 315 315 315 314 314 316 317
352 349 346 343 341 338 333 330 328 326 323 322 322 321 321 321 320 319 316 316 316 314 313 313 313 312 312 313 313 311 312 314 315
351 348 343 341 338 334 330 327 325 323 322 321 321 321 320 319 318 317 317 316 314 313 312 311 311 311 311 311 309 308 308 312 314
348 345 340 338 335 331 327 325 323 321 321 320 320 320 319 318 316 316 317 315 314 314 312 312 311 311 310 311 310 307 308 311 312
348 341 337 335 331 328 325 323 321 321 320 320 320 320 320 319 317 315 314 315 315 315 315 313 312 312 311 308 310 306 307 309 310
341 338 335 331 329 327 323 321 320 320 320 320 320 320 321 320 318 317 316 316 315 316 316 316 316 316 314 311 308 309 306 307 309
337 333 330 329 327 324 321 320 319 320 320 320 320 318 319 319 319 317 316 316 317 316 316 316 316 316 315 314 312 309 308 306 306
332 330 329 327 324 322 321 318 318 319 320 320 319 318 317 317 315 316 314 316 317 316 316 315 314 313 313 313 313 312 310 310 309
331 328 326 325 323 322 320 318 319 319 320 319 317 317 318 317 317 315 314 315 315 315 314 313 312 311 311 312 312 312 311 310 310
328 326 324 324 323 322 320 319 318 319 319 318 319 318 316 316 315 314 313 312 312 312 313 311 310 311 311 311 311 310 309 309 309
325 324 323 323 322 320 318 317 317 317 317 316 316 315 314 313 313 312 313 312 313 311 310 310 309 308 307 309 308 308 307 307 308
322 321 321 321 319 317 316 315 315 315 313 312 312 315 313 313 312 312 312 313 313 313 312 313 313 311 310 308 308 307 308 307 308
Wind_Speed
14 15 12 10 8 6 8 9 8 9 6 11 16 16 15 11 12 2 5 7 6 6 6 8 7 7 6 6 6 5 5 6 6
13 12 12 11 9 9 9 9 7 5 11 12 17 21 24 21 19 9 8 7 5 7 7 7 9 8 9 9 8 7 6 5 6
9 10 11 9 7 5 5 6 7 9 13 14 17 18 21 19 15 11 8 6 9 9 10 9 10 10 9 10 10 10 9 7 6
10 9 8 7 6 6 7 9 13 17 16 16 14 17 20 17 14 11 8 9 10 10 9 9 11 12 11 11 10 11 10 11 10
10 8 9 9 10 10 10 10 14 16 15 14 14 16 16 16 13 11 9 9 9 8 10 12 10 10 11 10 10 12 13 13 13
9 11 12 11 11 12 12 13 16 17 15 14 14 15 15 14 12 10 9 9 10 10 8 9 11 12 13 13 12 13 14 14 14
10 11 12 11 11 13 14 15 15 16 15 13 12 13 14 13 11 10 9 9 9 9 10 10 12 14 12 10 10 12 15 16 15
13 13 12 13 13 13 15 15 14 15 14 13 13 13 11 9 7 7 8 10 12 12 13 14 12 10 10 11 11 16 18 17 16
15 16 15 14 13 15 14 14 15 14 12 10 9 8 7 7 8 10 11 12 12 14 13 13 13 14 14 15 15 20 19 19 15
17 17 17 15 14 15 14 14 14 12 10 9 8 8 8 8 9 10 12 12 12 12 12 12 14 15 16 17 17 23 23 22 16
17 16 16 15 16 17 16 15 13 12 10 10 9 8 9 9 9 10 9 10 10 10 11 13 15 18 18 18 20 26 27 22 19
17 16 17 18 19 19 18 15 12 11 10 9 8 9 10 8 6 5 6 7 8 9 11 13 13 13 15 16 19 27 29 22 19
16 20 21 22 21 19 16 13 11 11 10 8 6 6 5 5 5 7 7 8 7 8 7 7 8 9 11 14 15 22 26 24 20
20 22 23 23 22 19 15 13 11 10 9 8 6 5 5 4 4 5 5 5 5 5 5 6 7 7 7 8 13 15 22 24 19
19 23 24 23 21 18 15 13 12 12 10 8 6 7 6 4 4 4 3 3 3 5 6 7 8 9 9 8 7 11 15 18 21
20 26 25 23 22 20 16 14 13 13 11 8 8 7 6 3 1 1 3 4 5 6 7 9 9 9 10 10 9 8 11 14 17
17 25 24 23 22 19 17 13 11 11 10 8 8 6 3 1 1 3 3 4 5 6 8 9 9 10 11 11 12 10 10 12 13
22 24 23 22 20 18 17 14 12 11 9 7 5 3 1 1 1 2 2 3 3 4 5 6 8 9 9 10 13 13 14 14 13
25 25 23 19 17 17 16 14 13 11 9 8 5 3 3 1 0 1 2 3 5 8 10 12 11 10 10 11 12 12 11 12 15
25 24 22 19 18 16 15 13 11 9 9 6 5 5 4 3 2 4 5 5 5 8 13 16 14 9 10 12 13 12 11 11 11
Wind_Direction
156 171 168 163 171 139 120 133 133 110 104 115 121 107 98 103 124 43 54 47 41 37 35 19 14 12 10 4 354 332 299 293 294
165 165 167 177 181 172 159 163 168 135 88 114 114 102 94 96 97 105 78 55 54 39 27 10 354 353 348 343 347 350 344 330 322
147 153 163 169 160 145 150 121 92 114 114 100 98 97 99 96 92 80 63 52 46 34 18 6 359 357 350 341 338 342 342 345 342
153 159 161 162 135 117 109 105 109 112 109 107 101 99 95 93 86 75 63 51 42 34 21 15 16 12 5 1 0 357 351 344 339
127 125 140 135 125 128 117 102 123 119 120 112 106 96 90 81 76 72 61 54 48 40 30 21 20 18 17 18 12 4 359 353 344
128 127 132 127 124 117 114 117 123 120 115 101 85 75 70 69 63 62 60 53 40 34 28 18 19 22 23 19 13 4 1 356 349
140 135 134 127 126 131 127 127 121 110 97 89 82 73 67 65 62 57 47 43 38 29 24 21 22 23 20 17 17 7 0 352 343
143 143 144 143 142 140 138 129 116 101 86 68 55 54 58 65 68 61 50 43 36 31 28 31 26 27 24 20 19 7 0 348 338
155 154 154 152 146 146 140 128 117 107 102 95 94 99 100 99 80 62 50 51 57 54 54 54 52 46 39 35 26 13 5 357 347
164 161 157 157 154 148 144 133 120 111 108 113 106 95 89 77 76 75 73 70 59 54 51 54 50 45 40 36 26 22 11 5 6
168 165 162 156 152 145 141 131 126 124 124 112 109 106 94 83 76 73 75 66 65 62 55 53 49 43 40 36 26 25 19 17 14
174 166 159 154 149 150 146 137 128 121 114 113 108 86 73 71 74 91 93 83 74 58 51 47 43 40 38 34 28 26 21 21 13
162 157 151 149 150 147 136 133 139 131 129 130 131 128 123 114 103 96 94 77 56 40 31 28 30 32 32 29 27 26 26 25 15
154 150 147 147 146 143 142 145 137 142 157 160 142 137 127 120 112 96 69 50 35 11 354 357 357 355 359 18 20 21 26 25 21
146 143 144 148 144 143 145 151 156 153 157 145 136 124 136 137 114 78 44 20 354 343 339 335 339 344 348 347 354 5 14 20 21
146 147 148 149 147 147 156 160 160 155 149 151 151 150 147 126 77 345 323 325 324 339 340 346 352 348 348 351 343 338 346 359 6
146 147 150 151 152 154 152 155 152 146 151 153 155 158 162 245 295 321 317 303 313 331 345 353 0 1 3 355 358 350 345 345 348
145 148 150 153 157 152 147 148 155 156 157 157 159 150 196 248 308 342 1 5 336 329 330 338 334 338 335 334 345 351 337 330 332
149 150 149 151 149 147 147 153 155 160 165 169 164 179 190 211 312 345 339 337 337 337 342 331 322 311 312 313 316 328 332 331 336
149 146 142 147 147 146 150 153 156 161 168 176 172 182 213 229 269 285 294 308 321 327 333 341 344 325 299 304 308 303 314 315 326